EQP1RD Weather Reports


time (UTC)temp
F
wind
direction
speed
knots
gust
knots
rain 1hr
in
rain 24hr
in
rain mn
in
humidity
%
barometer
mb
20260510192619 82 213 3.5 6.1 0.00 0.00 0.00 74 1017.3
20260510191622 82 244 3.5 6.1 0.00 0.00 0.00 75 1017.2
20260510185621 82 215 2.6 6.1 0.00 0.00 0.00 77 1017.6
20260510184622 81 99 0.9 5.2 0.00 0.00 0.00 77 1017.6
20260510183719 82 225 3.5 7.0 0.00 0.00 0.00 76 1017.7
20260510182720 82 218 4.3 7.0 0.00 0.00 0.00 78 1017.9
20260510181719 82 31 1.7 3.5 0.00 0.00 0.00 77 1017.9
20260510180720 81 279 3.5 4.3 0.00 0.00 0.00 79 1018.0
20260510175720 83 214 1.7 4.3 0.00 0.00 0.00 77 1018.2
20260510174720 84 191 1.7 3.5 0.00 0.00 0.00 72 1018.2
20260510173819 84 108 0.9 2.6 0.00 0.00 0.00 71 1018.3
20260510172820 84 52 1.7 3.5 0.00 0.00 0.00 73 1018.3
20260510171821 83 34 0.9 3.5 0.00 0.00 0.00 75 1018.5
20260510170820 83 225 0.0 0.0 0.00 0.00 0.00 75 1018.6
20260510164822 83 315 0.0 0.9 0.00 0.00 0.00 74 1018.7
20260510162921 84 235 0.0 0.9 0.00 0.00 0.00 76 1018.8
20260510162018 83 85 0.9 1.7 0.00 0.00 0.00 77 1018.8
20260510161021 83 157 0.0 1.7 0.00 0.00 0.00 80 1018.9
20260510160120 82 144 0.0 0.9 0.00 0.00 0.00 80 1018.9
20260510155120 80 337 0.0 0.9 0.00 0.00 0.00 80 1018.9
20260510154121 79 90 0.0 0.9 0.00 0.00 0.00 81 1018.9
20260510153219 78 67 0.0 0.9 0.00 0.00 0.00 84 1018.8
20260510152219 77 45 0.9 1.7 0.00 0.00 0.00 88 1018.7
20260510151219 75 112 0.9 2.6 0.00 0.00 0.00 90 1018.8
20260510150220 74 67 0.9 1.7 0.00 0.00 0.00 94 1018.9
20260510145219 74 91 2.6 4.3 0.00 0.00 0.00 97 1019.1
20260510144220 74 54 1.7 3.5 0.00 0.00 0.00 98 1019.2
20260510142319 71 135 0.0 0.9 0.00 0.00 0.00 98 1019.1
20260510141319 71 90 0.0 0.0 0.00 0.00 0.00 99 1019.3
20260510135321 70 82 1.7 2.6 0.00 0.00 0.00 99 1019.0
20260510134419 70 45 0.0 0.0 0.00 0.00 0.00 99 1019.0
20260510133421 70 80 1.7 4.3 0.00 0.00 0.00 99 1018.7
20260510132419 70 104 0.9 2.6 0.00 0.00 0.00 98 1018.8
20260510131420 69 90 0.0 0.0 0.00 0.00 0.00 99 1018.8
20260510130519 69 74 0.0 0.9 0.00 0.00 0.00 99 1018.4
20260510125520 69 142 0.0 0.0 0.00 0.00 0.00 99 1018.5
20260510123521 68 81 2.6 4.3 0.00 0.00 0.00 99 1018.4
20260510122520 68 67 1.7 3.5 0.00 0.00 0.00 98 1018.2
20260510121519 68 67 0.9 3.5 0.00 0.00 0.00 99 1018.0
20260510120518 68 79 1.7 2.6 0.00 0.00 0.00 99 1017.7
20260510115520 68 90 0.0 0.0 0.00 0.00 0.00 99 1017.5
20260510114520 68 90 0.0 0.0 0.00 0.00 0.00 99 1017.4
20260510113520 68 67 0.0 1.7 0.00 0.00 0.00 99 1017.1
20260510112520 68 90 0.0 0.9 0.00 0.00 0.00 99 1017.0
20260510111520 68 67 0.0 0.0 0.00 0.00 0.00 99 1016.7
20260510110520 68 67 0.0 0.0 0.00 0.00 0.00 99 1016.4
20260510105519 68 90 0.0 0.0 0.00 0.00 0.00 99 1016.1
20260510104521 68 90 0.0 0.0 0.00 0.00 0.00 99 1015.9
20260510101618 68 90 0.0 0.0 0.00 0.00 0.00 98 1015.7
20260510100619 68 90 0.0 1.7 0.00 0.00 0.00 98 1015.7
20260510095634 68 91 0.9 1.7 0.00 0.00 0.00 99 1015.5
20260510092718 68 90 0.0 0.0 0.00 0.00 0.00 99 1015.4
20260510091721 68 90 0.0 0.0 0.00 0.00 0.00 98 1015.4
20260510090819 68 90 0.0 0.0 0.00 0.00 0.00 99 1015.6
20260510085820 68 90 0.0 0.0 0.00 0.00 0.00 99 1015.6
20260510084822 68 67 0.0 0.0 0.00 0.00 0.00 99 1015.6
20260510082820 68 67 0.0 0.0 0.00 0.00 0.00 99 1015.5
20260510081820 68 67 0.0 0.0 0.00 0.00 0.00 99 1015.4
20260510074819 68 67 0.9 1.7 0.00 0.00 0.00 99 1015.1
20260510073820 68 67 0.0 0.0 0.00 0.00 0.00 99 1015.0
20260510072819 69 67 0.0 0.9 0.00 0.00 0.00 99 1015.0
20260510071820 69 67 0.0 0.0 0.00 0.00 0.00 99 1015.0
20260510070919 69 67 0.0 0.0 0.00 0.00 0.00 99 1015.0
20260510065921 69 67 0.0 0.0 0.00 0.00 0.00 98 1015.0
20260510065019 69 90 0.0 0.9 0.00 0.00 0.00 99 1015.0
20260510064019 68 45 0.0 0.0 0.00 0.00 0.00 99 1015.3
20260510063021 68 292 0.0 0.0 0.00 0.00 0.00 97 1015.4
20260510062021 68 292 0.0 0.0 0.00 0.00 0.00 98 1015.3
20260510061119 68 292 0.0 0.0 0.00 0.00 0.00 98 1015.4
20260510060120 69 292 0.0 0.0 0.00 0.00 0.00 98 1015.3
20260510055219 68 292 0.0 0.0 0.00 0.00 0.00 98 1015.3
20260510054220 68 292 0.0 0.0 0.00 0.00 0.00 98 1015.4
20260510053319 68 292 0.0 0.0 0.00 0.01 0.00 98 1015.2
20260510052321 69 292 0.0 0.0 0.00 0.01 0.00 97 1015.4
20260510051321 69 292 0.0 0.0 0.00 0.01 0.00 98 1015.3
20260510050319 69 292 0.0 0.0 0.00 0.01 0.00 98 1015.4
20260510045320 69 292 0.0 0.0 0.00 0.01 0.01 98 1015.4
20260510044420 69 292 0.0 0.0 0.00 0.01 0.01 98 1015.3
20260510043422 69 292 0.0 0.0 0.00 0.01 0.01 98 1015.2
20260510042421 70 292 0.0 0.0 0.00 0.01 0.01 98 1015.3
20260510041521 70 292 0.0 0.0 0.00 0.01 0.01 97 1015.3
20260510035620 70 67 0.0 0.0 0.00 0.01 0.01 98 1014.6
20260510034720 70 67 0.9 1.7 0.00 0.01 0.01 97 1015.0
20260510031721 70 45 0.0 0.9 0.00 0.01 0.01 97 1015.9
20260510030722 70 30 0.0 0.0 0.00 0.01 0.01 98 1015.8
20260510025821 70 45 0.0 0.0 0.00 0.01 0.01 98 1015.8
20260510024822 70 62 0.0 0.0 0.00 0.01 0.01 97 1015.4
20260510023820 70 90 0.0 0.0 0.00 0.01 0.01 98 1015.3
20260510022822 70 180 0.0 0.0 0.00 0.01 0.01 98 1015.3
20260510021821 70 180 0.0 0.0 0.00 0.01 0.01 98 1015.2
20260510020821 70 180 0.0 0.0 0.00 0.01 0.01 98 1015.4
20260510015823 70 270 0.0 0.0 0.00 0.01 0.01 98 1015.6
20260510014920 70 270 0.0 0.9 0.00 0.01 0.01 98 1015.2
20260510013921 70 270 0.0 0.0 0.00 0.01 0.01 97 1014.4
20260510012923 70 268 0.0 1.7 0.00 0.01 0.01 98 1014.2
20260510011922 70 270 0.0 0.0 0.00 0.01 0.01 98 1014.2
20260510010920 70 292 0.0 0.0 0.00 0.01 0.01 98 1014.4
20260510005921 70 67 0.0 0.9 0.00 0.01 0.01 98 1014.2
20260510003922 70 360 0.0 0.9 0.00 0.01 0.01 98 1014.8
20260510003020 70 242 1.7 2.6 0.00 0.01 0.01 98 1014.7
20260510002021 70 67 0.0 0.0 0.00 0.01 0.01 98 1013.9
20260510001119 70 337 0.0 0.0 0.00 0.01 0.01 97 1013.9
20260510000122 70 67 0.0 0.9 0.00 0.01 0.01 98 1014.1
20260509235122 70 247 0.0 0.0 0.00 0.01 0.01 98 1014.8
20260509234121 70 292 0.0 0.0 0.00 0.01 0.01 98 1014.5
20260509233120 70 315 0.0 0.0 0.00 0.01 0.01 98 1014.6
20260509232120 70 315 0.0 0.0 0.00 0.01 0.01 97 1014.6
20260509231121 70 315 0.0 0.0 0.00 0.01 0.01 98 1014.5
20260509225120 70 315 0.0 0.0 0.00 0.01 0.01 97 1014.6
20260509224219 69 315 0.0 0.0 0.00 0.01 0.01 98 1014.0
20260509223222 69 225 0.0 0.9 0.00 0.01 0.01 98 1013.8
20260509221221 69 247 0.0 0.0 0.00 0.01 0.01 98 1014.1
20260509220223 69 225 0.9 3.5 0.00 0.01 0.01 98 1014.3
20260509215220 69 225 0.0 0.0 0.00 0.01 0.01 97 1014.1
20260509214222 69 180 0.0 0.0 0.00 0.01 0.01 98 1013.9
20260509213321 69 180 0.0 0.0 0.00 0.01 0.01 98 1014.0
20260509212320 69 180 0.0 1.7 0.00 0.01 0.01 97 1013.8
20260509211320 69 270 0.0 0.0 0.00 0.01 0.01 98 1013.8
20260509210322 69 270 1.7 1.7 0.00 0.01 0.01 98 1013.0
20260509205420 69 23 0.9 0.9 0.00 0.01 0.01 97 1012.6
20260509204422 69 202 0.0 0.9 0.00 0.01 0.01 98 1013.4
20260509203520 69 226 0.9 2.6 0.00 0.01 0.01 98 1013.5
20260509202521 69 45 0.0 0.0 0.00 0.01 0.01 98 1013.6
20260509201620 69 56 1.7 3.5 0.00 0.01 0.01 98 1013.8
20260509200622 69 45 0.9 1.7 0.00 0.01 0.01 98 1014.6
20260509195623 69 181 1.7 2.6 0.00 0.01 0.01 98 1015.1
20260509193720 69 259 0.9 0.9 0.00 0.01 0.01 98 1014.8